Location: Saint-Palais-sur-Mer
(45.6429°N, 1.0859°W)
Time: 15:34:51
(UTC+01:00)

S-56A Canister/Altair - Pass Details

Date: 10 February 2026
Orbit: 633 x 2484 km, 38.9° (Epoch: 16 March)

Event Time Altitude Azimuth Distance (km) Brightness Sun altitude
Exits shadow 06:22:07 27° 258° (WSW) 3,061 10.0 -20.0°
Maximum altitude 06:29:08 59° 191° (S) 2,374 9.9 -18.8°
Drops below altitude 10° 06:43:17 10° 118° (ESE) 5,108 12.8 -16.3°
Sets 06:47:28 0° 115° (ESE) 6,151 13.5 -15.6°
